datetime,"average soil temperature, 4 in depth"
2000-04-19,46.46
2000-04-20,49.3
2000-04-21,52.34
2000-04-22,53.0
2000-04-23,50.23
2000-04-24,49.04
2000-04-25,51.59
2000-04-26,52.87
2000-04-27,54.85
2000-04-28,51.47
2000-04-29,50.52
2000-04-30,54.17
2000-05-01,55.4
2000-05-02,54.82
2000-05-03,55.75
2000-05-04,55.79
2000-05-05,54.75
2000-05-06,53.56
2000-05-07,51.7
2000-05-08,53.21
2000-05-09,54.07
2000-05-10,51.04
2000-05-11,48.6
2000-05-12,48.49
2000-05-13,49.66
2000-05-14,50.27
2000-05-15,51.85
2000-05-16,52.24
2000-05-17,53.09
2000-05-18,54.72
2000-05-19,58.17
2000-05-20,59.88
2000-05-21,61.82
2000-05-22,62.72
2000-05-23,62.74
2000-05-24,62.81
2000-05-25,61.63
2000-05-26,61.43
2000-05-27,62.61
2000-05-28,61.95
2000-05-29,60.96
2000-05-30,59.47
2000-05-31,57.75
2000-06-01,59.87
2000-06-02,62.07
2000-06-03,64.34
2000-06-04,65.99
2000-06-05,66.76
2000-06-06,66.31
2000-06-07,66.21
2000-06-08,63.05
2000-06-09,61.47
2000-06-10,61.64
2000-06-11,60.01
2000-06-12,60.74
2000-06-13,62.6
2000-06-14,67.13
2000-06-15,68.31
2000-06-16,67.62
2000-06-17,68.17
2000-06-18,68.98
2000-06-19,68.55
2000-06-20,69.14
2000-06-21,70.58
2000-06-22,71.4
2000-06-23,71.32
2000-06-24,71.35
2000-06-25,71.31
2000-06-26,71.95
2000-06-27,72.15
2000-06-28,72.62
2000-06-29,73.08
2000-06-30,73.25
2000-07-01,71.86
2000-07-02,69.58
2000-07-03,68.59
2000-07-04,66.42
2000-07-05,64.69
2000-07-06,62.75
2000-07-07,63.91
2000-07-08,64.88
2000-07-09,66.39
2000-07-10,67.9
2000-07-11,69.22
2000-07-12,70.45
2000-07-13,70.31
2000-07-14,70.04
2000-07-15,70.16
2000-07-16,69.36
2000-07-17,70.07
2000-07-18,70.63
2000-07-19,70.97
2000-07-20,71.39
2000-07-21,71.91
2000-07-22,71.63
2000-07-23,70.57
2000-07-24,70.82
2000-07-25,70.84
2000-07-26,70.22
2000-07-27,69.92
2000-07-28,70.36
2000-07-29,71.04
2000-07-30,71.54
2000-07-31,72.24
2000-08-01,71.72
2000-08-02,70.94
2000-08-03,71.05
2000-08-04,70.82
2000-08-05,70.08
2000-08-06,69.73
2000-08-07,69.27
2000-08-08,69.92
2000-08-09,69.31
2000-08-10,67.46
2000-08-11,66.23
2000-08-12,66.19
2000-08-13,66.08
2000-08-14,65.4
2000-08-15,65.21
2000-08-16,64.85
2000-08-17,64.77
2000-08-18,63.84
2000-08-19,63.44
2000-08-20,62.63
2000-08-21,62.91
2000-08-22,63.62
2000-08-23,63.26
2000-08-24,62.66
2000-08-25,62.63
2000-08-26,63.0
2000-08-27,62.95
2000-08-28,62.79
2000-08-29,62.76
2000-08-30,62.65
2000-08-31,62.34
2000-09-01,60.88
2000-09-02,58.74
2000-09-03,57.93
2000-09-04,56.4
2000-09-05,55.69
2000-09-06,55.25
2000-09-07,55.56
2000-09-08,56.19
2000-09-09,55.09
2000-09-10,55.37
2000-09-11,57.13
2000-09-12,58.34
2000-09-13,60.07
2000-09-14,59.99
2000-09-15,59.92
2000-09-16,59.8
2000-09-17,59.55
2000-09-18,60.02
2000-09-19,60.89
2000-09-20,61.35
2000-09-21,60.59
2000-09-22,59.25
2000-09-23,57.08
2000-09-24,55.78
2000-09-25,55.49
2000-09-26,55.41
2000-09-27,55.4
2000-09-28,56.06
2000-09-29,56.3
2000-09-30,56.52
2000-10-01,56.86
2000-10-02,56.0
2000-10-03,54.88
2000-10-04,54.12
2000-10-05,53.7
2000-10-06,53.54
2000-10-07,53.45
2000-10-08,53.67
2000-10-09,53.66
2000-10-10,52.9
2000-10-11,52.08
2000-10-12,51.35
2000-10-13,51.81
2000-10-14,51.39
2000-10-15,50.95
2000-10-16,50.4
2000-10-17,50.11
2000-10-18,50.12
2000-10-19,50.46
2000-10-20,50.39
2000-10-21,49.45
2000-10-22,48.0
2000-10-23,46.88
2000-10-24,46.56
2000-10-25,47.47
2000-10-26,47.37
2000-10-27,46.82
2000-10-28,47.34
2000-10-29,46.64
2000-10-30,46.22
2000-10-31,45.68
2000-11-01,45.15
2000-11-02,45.76
2000-11-03,46.5
2000-11-04,46.0
2000-11-05,45.4
2000-11-06,45.18
2000-11-07,44.09
2000-11-08,44.47
2000-11-09,43.74
2000-11-10,42.39
2000-11-11,41.22
2000-11-12,40.15
2000-11-13,39.31
2000-11-14,39.06
2000-11-15,39.32
2000-11-16,39.38
2000-11-17,38.95
2000-11-18,38.53
2000-11-19,38.06
2000-11-20,37.67
2000-11-21,37.44
2000-11-22,37.29
2000-11-23,36.99
2000-11-24,36.79
2000-11-25,36.76
2000-11-26,36.84
2000-11-27,37.17
2000-11-28,37.66
2000-11-29,38.51
2000-11-30,39.01
2000-12-01,38.52
2000-12-02,37.75
2000-12-03,37.28
2000-12-04,36.92
2000-12-05,36.55
2000-12-06,36.22
2000-12-07,35.96
2000-12-08,35.8
2000-12-09,35.74
2000-12-10,35.83
2000-12-11,35.97
2000-12-12,35.98
2000-12-13,36.05
2000-12-14,36.1
2000-12-15,36.07
2000-12-16,36.1
2000-12-17,36.17
2000-12-18,35.91
2000-12-19,35.54
2000-12-20,35.42
2000-12-21,35.45
2000-12-22,35.68
2000-12-23,35.92
2000-12-24,35.89
2000-12-25,35.62
2000-12-26,35.24
2000-12-27,34.98
2000-12-28,34.78
2000-12-29,34.57
2000-12-30,34.38
2000-12-31,34.2
2001-01-01,34.04
2001-01-02,33.95
2001-01-03,33.9
2001-01-04,33.85
2001-01-05,33.83
2001-01-06,33.83
2001-01-07,33.82
2001-01-08,33.81
2001-01-09,33.82
2001-01-10,33.84
2001-01-11,33.85
2001-01-12,33.88
2001-01-13,33.89
2001-01-14,33.92
2001-01-15,33.94
2001-01-16,33.85
2001-01-17,33.62
2001-01-18,33.4
2001-01-19,33.34
2001-01-20,33.31
2001-01-21,33.29
2001-01-22,33.3
2001-01-23,33.33
2001-01-24,33.36
2001-01-25,33.4
2001-01-26,33.43
2001-01-27,33.45
2001-01-28,33.44
2001-01-29,33.39
2001-01-30,33.36
2001-01-31,33.22
2001-02-01,33.07
2001-02-02,33.03
2001-02-03,33.05
2001-02-04,33.07
2001-02-05,33.12
2001-02-06,33.17
2001-02-07,33.24
2001-02-08,33.28
2001-02-09,33.28
2001-02-10,33.29
2001-02-11,33.29
2001-02-12,33.3
2001-02-13,33.28
2001-02-14,33.21
2001-02-15,33.13
2001-02-16,33.11
2001-02-17,33.11
2001-02-18,33.14
2001-02-19,33.17
2001-02-20,33.21
2001-02-21,33.27
2001-02-22,33.38
2001-02-23,33.47
2001-02-24,33.53
2001-02-25,33.63
2001-02-26,33.88
2001-02-27,34.11
2001-02-28,34.25
2001-03-01,34.25
2001-03-02,34.21
2001-03-03,34.27
2001-03-04,34.22
2001-03-05,34.55
2001-03-06,35.19
2001-03-07,36.36
2001-03-08,37.82
2001-03-09,37.73
2001-03-10,37.46
2001-03-11,37.96
2001-03-12,38.48
2001-03-13,39.16
2001-03-14,39.39
2001-03-15,39.16
2001-03-16,39.13
2001-03-17,39.58
2001-03-18,40.98
2001-03-19,42.61
2001-03-20,43.3
2001-03-21,44.18
2001-03-22,44.65
2001-03-23,45.46
2001-03-24,45.66
2001-03-25,45.31
2001-03-26,44.37
2001-03-27,43.46
2001-03-28,44.23
2001-03-29,44.71
2001-03-30,45.18
2001-03-31,45.57
2001-04-01,45.93
2001-04-02,45.23
2001-04-03,43.67
2001-04-04,42.65
2001-04-05,42.5
2001-04-06,43.38
2001-04-07,42.07
2001-04-08,41.11
2001-04-09,40.74
2001-04-10,41.14
2001-04-11,41.72
2001-04-12,41.25
2001-04-13,41.72
2001-04-14,41.84
2001-04-15,42.53
2001-04-16,43.12
2001-04-17,43.91
2001-04-18,45.03
2001-04-19,44.12
2001-04-20,44.21
2001-04-21,43.77
2001-04-22,44.63
2001-04-23,46.42
2001-04-24,47.89
2001-04-25,49.65
2001-04-26,50.85
2001-04-27,51.38
2001-04-28,50.86
2001-04-29,49.37
2001-04-30,49.87
2001-05-01,49.67
2001-05-02,48.32
2001-05-03,48.05
2001-05-04,49.13
2001-05-05,50.37
2001-05-06,50.27
2001-05-07,50.92
2001-05-08,52.16
2001-05-09,52.75
2001-05-10,52.88
2001-05-11,53.31
2001-05-12,54.05
2001-05-13,53.77
2001-05-14,53.58
2001-05-15,53.15
2001-05-16,52.97
2001-05-17,52.76
2001-05-18,53.22
2001-05-19,54.17
2001-05-20,54.71
2001-05-21,55.42
2001-05-22,56.2
2001-05-23,57.6
2001-05-24,58.71
2001-05-25,59.0
2001-05-26,59.74
2001-05-27,59.31
2001-05-28,57.19
2001-05-29,56.09
2001-05-30,56.53
2001-05-31,57.55
2001-06-01,58.17
2001-06-02,56.41
2001-06-03,54.26
2001-06-04,53.35
2001-06-05,54.65
2001-06-06,54.64
2001-06-07,56.12
2001-06-08,56.64
2001-06-09,57.16
2001-06-10,56.61
2001-06-11,55.6
2001-06-12,55.29
2001-06-13,54.34
2001-06-14,55.25
2001-06-15,55.85
2001-06-16,56.18
2001-06-17,56.11
2001-06-18,55.21
2001-06-19,56.27
2001-06-20,57.42
2001-06-21,58.72
2001-06-22,58.99
2001-06-23,58.92
2001-06-24,57.12
2001-06-25,56.07
2001-06-26,56.04
2001-06-27,56.41
2001-06-28,56.35
2001-06-29,57.14
2001-06-30,59.05
2001-07-01,59.25
2001-07-02,59.62
2001-07-03,60.39
2001-07-04,60.97
2001-07-05,62.98
2001-07-06,62.18
2001-07-07,61.46
2001-07-08,60.91
2001-07-09,61.33
2001-07-10,61.94
2001-07-11,60.82
2001-07-12,59.74
2001-07-13,60.19
2001-07-14,60.72
2001-07-15,61.0
2001-07-16,61.44
2001-07-17,59.95
2001-07-18,59.38
2001-07-19,59.17
2001-07-20,59.99
2001-07-21,60.19
2001-07-22,59.25
2001-07-23,60.38
2001-07-24,61.41
2001-07-25,61.93
2001-07-26,61.6
2001-07-27,61.51
2001-07-28,61.1
2001-07-29,60.21
2001-07-30,60.24
2001-07-31,59.22
2001-08-01,59.85
2001-08-02,61.04
2001-08-03,60.81
2001-08-04,61.6
2001-08-05,61.27
2001-08-06,61.73
2001-08-07,62.39
2001-08-08,63.35
2001-08-09,63.92
2001-08-10,63.74
2001-08-11,63.44
2001-08-12,62.92
2001-08-13,62.33
2001-08-14,61.98
2001-08-15,62.68
2001-08-16,63.37
2001-08-17,63.13
2001-08-18,62.42
2001-08-19,61.34
2001-08-20,62.81
2001-08-21,66.05
2001-08-22,66.91
2001-08-23,66.55
2001-08-24,65.41
2001-08-25,66.46
2001-08-26,66.16
2001-08-27,66.0
2001-08-28,65.05
2001-08-29,65.0
2001-08-30,65.57
2001-08-31,65.12
2001-09-01,64.83
2001-09-02,64.49
2001-09-03,64.14
2001-09-04,63.47
2001-09-05,62.52
2001-09-06,60.24
2001-09-07,59.49
2001-09-08,59.53
2001-09-09,59.0
2001-09-10,59.25
2001-09-11,58.8
2001-09-12,59.03
2001-09-13,59.85
2001-09-14,59.45
2001-09-15,60.01
2001-09-16,59.65
2001-09-17,58.85
2001-09-18,58.47
2001-09-19,57.57
2001-09-20,56.79
2001-09-21,56.23
2001-09-22,55.9
2001-09-23,56.23
2001-09-24,56.48
2001-09-25,57.31
2001-09-26,56.35
2001-09-27,55.67
2001-09-28,54.57
2001-09-29,53.44
2001-09-30,53.28
2001-10-01,53.67
2001-10-02,54.06
2001-10-03,53.74
2001-10-04,53.55
2001-10-05,53.38
2001-10-06,53.13
2001-10-07,52.26
2001-10-08,52.14
2001-10-09,50.42
2001-10-10,49.22
2001-10-11,50.85
2001-10-12,49.74
2001-10-13,49.41
2001-10-14,49.44
2001-10-15,49.42
2001-10-16,50.18
2001-10-17,50.6
2001-10-18,48.76
2001-10-19,47.7
2001-10-20,48.0
2001-10-21,47.88
2001-10-22,48.7
2001-10-23,49.19
2001-10-24,46.74
2001-10-25,45.31
2001-10-26,44.97
2001-10-27,45.52
2001-10-28,46.54
2001-10-29,47.4
2001-10-30,48.35
2001-10-31,48.06
2001-11-01,47.29
2001-11-02,
2001-11-03,
2001-11-04,
2001-11-05,
2001-11-06,
2001-11-07,
2001-11-08,
2001-11-09,
2001-11-10,
2001-11-11,
2001-11-12,
2001-11-13,
2001-11-14,
2001-11-15,
2001-11-16,
2001-11-17,
2001-11-18,
2001-11-19,
2001-11-20,
2001-11-21,
2001-11-22,
2001-11-23,
2001-11-24,
2001-11-25,
2001-11-26,
2001-11-27,
2001-11-28,
2001-11-29,
2001-11-30,
2001-12-01,
2001-12-02,
2001-12-03,
2001-12-04,
2001-12-05,
2001-12-06,
2001-12-07,
2001-12-08,
2001-12-09,
2001-12-10,
2001-12-11,
2001-12-12,37.74
2001-12-13,37.7
2001-12-14,37.61
2001-12-15,37.5
2001-12-16,37.48
2001-12-17,37.36
2001-12-18,37.27
2001-12-19,37.24
2001-12-20,37.16
2001-12-21,37.13
2001-12-22,37.12
2001-12-23,37.27
2001-12-24,37.16
2001-12-25,37.03
2001-12-26,36.9
2001-12-27,36.85
2001-12-28,36.75
2001-12-29,36.65
2001-12-30,36.47
2001-12-31,36.1
2002-01-01,35.98
2002-01-02,35.33
2002-01-03,35.19
2002-01-04,35.52
2002-01-05,35.97
2002-01-06,36.05
2002-01-07,37.69
2002-01-08,37.98
2002-01-09,38.79
2002-01-10,39.12
2002-01-11,39.28
2002-01-12,39.29
2002-01-13,39.35
2002-01-14,38.78
2002-01-15,37.95
2002-01-16,38.41
2002-01-17,39.06
2002-01-18,39.41
2002-01-19,39.54
2002-01-20,39.64
2002-01-21,39.76
2002-01-22,39.85
2002-01-23,39.86
2002-01-24,39.76
2002-01-25,39.65
2002-01-26,39.52
2002-01-27,39.34
2002-01-28,39.19
2002-01-29,39.12
2002-01-30,39.0
2002-01-31,38.75
2002-02-01,38.42
2002-02-02,37.99
2002-02-03,37.61
2002-02-04,37.33
2002-02-05,37.12
2002-02-06,36.94
2002-02-07,37.0
2002-02-08,37.28
2002-02-09,37.73
2002-02-10,38.42
2002-02-11,39.06
2002-02-12,39.51
2002-02-13,39.91
2002-02-14,40.06
2002-02-15,38.77
2002-02-16,36.56
2002-02-17,35.93
2002-02-18,35.65
2002-02-19,35.55
2002-02-20,37.06
2002-02-21,39.91
2002-02-22,40.29
2002-02-23,40.5
2002-02-24,40.18
2002-02-25,39.8
2002-02-26,39.66
2002-02-27,39.99
2002-02-28,39.67
2002-03-01,38.36
2002-03-02,37.66
2002-03-03,37.57
2002-03-04,37.89
2002-03-05,38.03
2002-03-06,38.04
2002-03-07,38.17
2002-03-08,37.16
2002-03-09,36.65
2002-03-10,36.62
2002-03-11,37.98
2002-03-12,39.41
2002-03-13,38.65
2002-03-14,37.84
2002-03-15,37.42
2002-03-16,36.86
2002-03-17,36.35
2002-03-18,36.06
2002-03-19,36.45
2002-03-20,38.07
2002-03-21,39.13
2002-03-22,39.98
2002-03-23,40.15
2002-03-24,40.55
2002-03-25,40.46
2002-03-26,40.45
2002-03-27,40.91
2002-03-28,41.51
2002-03-29,42.59
2002-03-30,43.13
2002-03-31,43.49
2002-04-01,44.01
2002-04-02,45.04
2002-04-03,46.26
2002-04-04,47.28
2002-04-05,47.97
2002-04-06,47.43
2002-04-07,46.9
2002-04-08,46.92
2002-04-09,47.75
2002-04-10,47.37
2002-04-11,48.38
2002-04-12,48.07
2002-04-13,48.81
2002-04-14,49.92
2002-04-15,48.16
2002-04-16,45.74
2002-04-17,44.27
2002-04-18,43.55
2002-04-19,43.84
2002-04-20,44.76
2002-04-21,45.73
2002-04-22,46.58
2002-04-23,47.39
2002-04-24,47.4
2002-04-25,48.35
2002-04-26,48.43
2002-04-27,47.39
2002-04-28,46.96
2002-04-29,47.06
2002-04-30,44.97
2002-05-01,44.7
2002-05-02,46.83
2002-05-03,47.95
2002-05-04,49.06
2002-05-05,49.59
2002-05-06,49.62
2002-05-07,48.67
2002-05-08,48.21
2002-05-09,49.11
2002-05-10,48.66
2002-05-11,48.61
2002-05-12,50.54
2002-05-13,51.85
2002-05-14,51.32
2002-05-15,52.19
2002-05-16,51.93
2002-05-17,54.37
2002-05-18,54.94
2002-05-19,51.98
2002-05-20,49.92
2002-05-21,50.51
2002-05-22,50.28
2002-05-23,50.96
2002-05-24,53.34
2002-05-25,54.69
2002-05-26,55.69
2002-05-27,55.52
2002-05-28,55.83
2002-05-29,58.34
2002-05-30,59.06
2002-05-31,58.38
2002-06-01,59.33
2002-06-02,57.5
2002-06-03,57.63
2002-06-04,58.42
2002-06-05,59.38
2002-06-06,59.01
2002-06-07,57.34
2002-06-08,54.15
2002-06-09,52.37
2002-06-10,53.73
2002-06-11,55.75
2002-06-12,57.92
2002-06-13,58.79
2002-06-14,59.68
2002-06-15,60.13
2002-06-16,60.09
2002-06-17,58.64
2002-06-18,59.08
2002-06-19,60.72
2002-06-20,67.47
2002-06-21,68.48
2002-06-22,70.94
2002-06-23,71.27
2002-06-24,68.92
2002-06-25,68.73
2002-06-26,69.09
2002-06-27,69.15
2002-06-28,67.84
2002-06-29,67.24
2002-06-30,66.1
2002-07-01,65.45
2002-07-02,65.48
2002-07-03,65.62
2002-07-04,64.36
2002-07-05,63.92
2002-07-06,64.9
2002-07-07,64.95
2002-07-08,63.54
2002-07-09,63.91
2002-07-10,65.45
2002-07-11,66.65
2002-07-12,67.5
2002-07-13,67.74
2002-07-14,67.5
2002-07-15,66.57
2002-07-16,65.6
2002-07-17,64.58
2002-07-18,64.6
2002-07-19,65.35
2002-07-20,64.72
2002-07-21,64.89
2002-07-22,65.28
2002-07-23,63.54
2002-07-24,62.76
2002-07-25,62.91
2002-07-26,62.63
2002-07-27,63.02
2002-07-28,62.6
2002-07-29,63.32
2002-07-30,63.3
2002-07-31,62.87
2002-08-01,62.55
2002-08-02,61.72
2002-08-03,60.82
2002-08-04,59.42
2002-08-05,57.05
2002-08-06,57.12
2002-08-07,57.52
2002-08-08,57.88
2002-08-09,59.79
2002-08-10,60.21
2002-08-11,61.0
2002-08-12,61.3
2002-08-13,62.72
2002-08-14,62.51
2002-08-15,62.45
2002-08-16,62.16
2002-08-17,66.65
2002-08-18,68.45
2002-08-19,69.07
2002-08-20,67.6
2002-08-21,66.24
2002-08-22,66.27
2002-08-23,65.36
2002-08-24,64.6
2002-08-25,64.75
2002-08-26,63.66
2002-08-27,63.81
2002-08-28,64.79
2002-08-29,64.84
2002-08-30,64.73
2002-08-31,62.64
2002-09-01,62.1
2002-09-02,62.61
2002-09-03,62.49
2002-09-04,61.13
2002-09-05,59.06
2002-09-06,57.07
2002-09-07,56.64
2002-09-08,55.54
2002-09-09,55.63
2002-09-10,56.18
2002-09-11,56.9
2002-09-12,57.54
2002-09-13,58.04
2002-09-14,57.2
2002-09-15,57.67
2002-09-16,57.13
2002-09-17,57.55
2002-09-18,56.5
2002-09-19,56.12
2002-09-20,56.25
2002-09-21,56.43
2002-09-22,56.05
2002-09-23,55.88
2002-09-24,56.03
2002-09-25,55.91
2002-09-26,54.16
2002-09-27,54.36
2002-09-28,53.93
2002-09-29,52.97
2002-09-30,51.16
2002-10-01,49.46
2002-10-02,49.24
2002-10-03,49.31
2002-10-04,50.06
2002-10-05,50.81
2002-10-06,51.77
2002-10-07,51.32
2002-10-08,50.89
2002-10-09,49.86
2002-10-10,49.08
2002-10-11,47.49
2002-10-12,46.05
2002-10-13,45.87
2002-10-14,46.0
2002-10-15,47.01
2002-10-16,46.97
2002-10-17,46.81
2002-10-18,46.87
2002-10-19,46.84
2002-10-20,47.1
2002-10-21,47.44
2002-10-22,47.65
2002-10-23,46.07
2002-10-24,45.23
2002-10-25,44.72
2002-10-26,44.13
2002-10-27,43.53
2002-10-28,43.63
2002-10-29,43.01
2002-10-30,42.1
2002-10-31,40.01
2002-11-01,38.47
2002-11-02,37.38
2002-11-03,36.89
2002-11-04,36.81
2002-11-05,37.11
2002-11-06,38.35
2002-11-07,41.07
2002-11-08,41.94
2002-11-09,41.73
2002-11-10,41.09
2002-11-11,41.93
2002-11-12,42.75
2002-11-13,42.18
2002-11-14,41.14
2002-11-15,39.96
2002-11-16,39.87
2002-11-17,40.74
2002-11-18,39.62
2002-11-19,40.47
2002-11-20,40.65
2002-11-21,40.58
2002-11-22,39.82
2002-11-23,39.57
2002-11-24,40.16
2002-11-25,39.45
2002-11-26,37.94
2002-11-27,37.09
2002-11-28,36.64
2002-11-29,36.36
2002-11-30,36.1
2002-12-01,35.87
2002-12-02,35.63
2002-12-03,35.37
2002-12-04,35.2
2002-12-05,35.14
2002-12-06,35.1
2002-12-07,35.02
2002-12-08,34.81
2002-12-09,34.71
2002-12-10,34.74
2002-12-11,34.8
2002-12-12,34.87
2002-12-13,35.08
2002-12-14,36.57
2002-12-15,37.38
2002-12-16,37.71
2002-12-17,36.94
2002-12-18,36.43
2002-12-19,36.19
2002-12-20,36.05
2002-12-21,35.99
2002-12-22,35.94
2002-12-23,35.84
2002-12-24,35.63
2002-12-25,35.48
2002-12-26,35.38
2002-12-27,35.17
2002-12-28,35.42
2002-12-29,35.68
2002-12-30,35.81
2002-12-31,36.1
2003-01-01,35.94
2003-01-02,35.93
2003-01-03,36.67
2003-01-04,37.79
2003-01-05,37.98
2003-01-06,36.88
2003-01-07,36.15
2003-01-08,35.75
2003-01-09,35.55
2003-01-10,35.37
2003-01-11,35.27
2003-01-12,35.31
2003-01-13,36.46
2003-01-14,38.33
2003-01-15,38.12
2003-01-16,37.75
2003-01-17,37.83
2003-01-18,37.21
2003-01-19,36.69
2003-01-20,36.4
2003-01-21,36.48
2003-01-22,37.76
2003-01-23,38.29
2003-01-24,37.99
2003-01-25,39.52
2003-01-26,40.93
2003-01-27,41.64
2003-01-28,40.03
2003-01-29,39.35
2003-01-30,40.66
2003-01-31,41.74
2003-02-01,41.38
2003-02-02,39.98
2003-02-03,38.89
2003-02-04,37.96
2003-02-05,36.29
2003-02-06,37.18
2003-02-07,37.75
2003-02-08,38.66
2003-02-09,39.46
2003-02-10,39.91
2003-02-11,40.14
2003-02-12,40.33
2003-02-13,41.37
2003-02-14,42.3
2003-02-15,42.93
2003-02-16,42.04
2003-02-17,41.48
2003-02-18,41.38
2003-02-19,42.1
2003-02-20,41.76
2003-02-21,41.87
2003-02-22,42.81
2003-02-23,42.31
2003-02-24,41.63
2003-02-25,40.6
2003-02-26,40.83
2003-02-27,40.79
2003-02-28,40.62
2003-03-01,40.36
2003-03-02,41.05
2003-03-03,42.28
2003-03-04,42.09
2003-03-05,41.88
2003-03-06,42.36
2003-03-07,42.37
2003-03-08,42.82
2003-03-09,43.62
2003-03-10,44.07
2003-03-11,45.04
2003-03-12,46.97
2003-03-13,47.08
2003-03-14,45.25
2003-03-15,45.17
2003-03-16,44.57
2003-03-17,43.92
2003-03-18,43.47
2003-03-19,43.15
2003-03-20,42.96
2003-03-21,44.14
2003-03-22,45.23
2003-03-23,43.87
2003-03-24,43.16
2003-03-25,43.88
2003-03-26,44.07
2003-03-27,43.26
2003-03-28,43.76
2003-03-29,44.26
2003-03-30,45.23
2003-03-31,46.76
2003-04-01,46.23
2003-04-02,44.54
2003-04-03,42.44
2003-04-04,41.93
2003-04-05,41.3
2003-04-06,41.56
2003-04-07,43.35
2003-04-08,45.35
2003-04-09,45.7
2003-04-10,45.51
2003-04-11,46.41
2003-04-12,46.39
2003-04-13,44.68
2003-04-14,44.56
2003-04-15,43.64
2003-04-16,43.24
2003-04-17,43.63
2003-04-18,44.15
2003-04-19,44.75
2003-04-20,45.69
2003-04-21,45.98
2003-04-22,45.82
2003-04-23,45.63
2003-04-24,44.42
2003-04-25,42.38
2003-04-26,42.71
2003-04-27,43.19
2003-04-28,44.48
2003-04-29,44.22
2003-04-30,44.24
2003-05-01,46.01
2003-05-02,47.51
2003-05-03,47.68
2003-05-04,47.34
2003-05-05,47.39
2003-05-06,47.61
2003-05-07,48.31
2003-05-08,47.73
2003-05-09,46.23
2003-05-10,47.2
2003-05-11,47.49
2003-05-12,49.16
2003-05-13,51.17
2003-05-14,52.95
2003-05-15,52.84
2003-05-16,51.27
2003-05-17,50.8
2003-05-18,49.47
2003-05-19,49.48
2003-05-20,50.93
2003-05-21,52.72
2003-05-22,54.33
2003-05-23,55.28
2003-05-24,56.14
2003-05-25,55.67
2003-05-26,55.54
2003-05-27,55.9
2003-05-28,56.67
2003-05-29,57.83
2003-05-30,58.43
2003-05-31,58.32
2003-06-01,56.68
2003-06-02,56.54
2003-06-03,57.24
2003-06-04,57.72
2003-06-05,57.61
2003-06-06,57.95
2003-06-07,58.69
2003-06-08,58.83
2003-06-09,57.84
2003-06-10,56.76
2003-06-11,56.15
2003-06-12,56.22
2003-06-13,60.19
2003-06-14,64.19
2003-06-15,65.52
2003-06-16,66.74
2003-06-17,68.39
2003-06-18,69.47
2003-06-19,67.59
2003-06-20,65.22
2003-06-21,63.26
2003-06-22,61.49
2003-06-23,60.32
2003-06-24,59.84
2003-06-25,60.44
2003-06-26,61.05
2003-06-27,61.99
2003-06-28,62.49
2003-06-29,62.6
2003-06-30,61.38
2003-07-01,60.44
2003-07-02,59.73
2003-07-03,59.43
2003-07-04,59.51
2003-07-05,59.7
2003-07-06,59.56
2003-07-07,59.61
2003-07-08,58.93
2003-07-09,58.49
2003-07-10,58.98
2003-07-11,59.47
2003-07-12,59.64
2003-07-13,59.0
2003-07-14,58.55
2003-07-15,59.12
2003-07-16,59.6
2003-07-17,59.49
2003-07-18,59.72
2003-07-19,60.19
2003-07-20,60.68
2003-07-21,61.08
2003-07-22,62.03
2003-07-23,62.85
2003-07-24,63.0
2003-07-25,62.62
2003-07-26,61.62
2003-07-27,60.85
2003-07-28,60.76
2003-07-29,60.89
2003-07-30,61.26
2003-07-31,61.35
2003-08-01,61.29
2003-08-02,61.39
2003-08-03,61.03
2003-08-04,59.75
2003-08-05,58.94
2003-08-06,57.45
2003-08-07,56.89
2003-08-08,55.99
2003-08-09,56.06
2003-08-10,55.9
2003-08-11,55.65
2003-08-12,55.08
2003-08-13,54.84
2003-08-14,54.47
2003-08-15,55.51
2003-08-16,55.02
2003-08-17,55.05
2003-08-18,55.98
2003-08-19,57.56
2003-08-20,57.61
2003-08-21,57.23
2003-08-22,57.43
2003-08-23,56.94
2003-08-24,56.26
2003-08-25,56.01
2003-08-26,55.97
2003-08-27,61.69
2003-08-28,67.17
2003-08-29,67.51
2003-08-30,67.13
2003-08-31,64.05
2003-09-01,63.12
2003-09-02,62.32
2003-09-03,61.83
2003-09-04,61.44
2003-09-05,61.94
2003-09-06,60.58
2003-09-07,59.23
2003-09-08,57.94
2003-09-09,57.45
2003-09-10,56.64
2003-09-11,56.61
2003-09-12,57.01
2003-09-13,55.84
2003-09-14,54.8
2003-09-15,54.92
2003-09-16,54.79
2003-09-17,53.06
2003-09-18,51.85
2003-09-19,52.0
2003-09-20,52.35
2003-09-21,52.65
2003-09-22,53.19
2003-09-23,53.15
2003-09-24,53.16
2003-09-25,53.01
2003-09-26,52.71
2003-09-27,54.07
2003-09-28,54.49
2003-09-29,54.06
2003-09-30,52.99
2003-10-01,53.08
2003-10-02,53.18
2003-10-03,53.53
2003-10-04,53.36
2003-10-05,53.31
2003-10-06,53.03
2003-10-07,53.29
2003-10-08,52.28
2003-10-09,51.7
2003-10-10,49.85
2003-10-11,48.04
2003-10-12,48.63
2003-10-13,47.29
2003-10-14,47.27
2003-10-15,47.03
2003-10-16,47.4
2003-10-17,47.76
2003-10-18,48.12
2003-10-19,49.57
2003-10-20,50.11
2003-10-21,49.62
2003-10-22,50.11
2003-10-23,49.86
2003-10-24,47.52
2003-10-25,47.44
2003-10-26,47.12
2003-10-27,46.96
2003-10-28,47.69
2003-10-29,48.56
2003-10-30,46.2
2003-10-31,44.33
2003-11-01,42.84
2003-11-02,41.96
2003-11-03,42.75
2003-11-04,43.14
2003-11-05,43.39
2003-11-06,43.0
2003-11-07,42.99
2003-11-08,44.14
2003-11-09,44.45
2003-11-10,44.11
2003-11-11,43.94
2003-11-12,43.12
2003-11-13,42.12
2003-11-14,41.74
2003-11-15,42.29
2003-11-16,42.94
2003-11-17,43.38
2003-11-18,42.49
2003-11-19,42.14
2003-11-20,42.38
2003-11-21,41.14
2003-11-22,40.25
2003-11-23,39.29
2003-11-24,38.61
2003-11-25,38.2
2003-11-26,37.93
2003-11-27,37.77
2003-11-28,37.6
2003-11-29,37.38
2003-11-30,38.06
2003-12-01,39.87
2003-12-02,40.09
2003-12-03,40.31
2003-12-04,40.02
2003-12-05,40.94
2003-12-06,42.2
2003-12-07,41.85
2003-12-08,40.71
2003-12-09,39.87
2003-12-10,40.07
2003-12-11,40.6
2003-12-12,39.86
2003-12-13,39.29
2003-12-14,40.33
2003-12-15,40.0
2003-12-16,39.46
2003-12-17,39.23
2003-12-18,38.94
2003-12-19,38.66
2003-12-20,38.61
2003-12-21,39.0
2003-12-22,39.2
2003-12-23,39.55
2003-12-24,40.52
2003-12-25,39.45
2003-12-26,38.49
2003-12-27,37.66
2003-12-28,37.8
2003-12-29,37.6
2003-12-30,37.7
2003-12-31,38.1
2004-01-01,37.99
2004-01-02,38.1
2004-01-03,38.33
2004-01-04,38.5
2004-01-05,38.69
2004-01-06,38.8
2004-01-07,38.86
2004-01-08,37.82
2004-01-09,36.9
2004-01-10,37.46
2004-01-11,38.01
2004-01-12,38.16
2004-01-13,37.97
2004-01-14,38.13
2004-01-15,37.99
2004-01-16,37.9
2004-01-17,38.02
2004-01-18,38.03
2004-01-19,37.77
2004-01-20,37.68
2004-01-21,37.71
2004-01-22,37.58
2004-01-23,37.43
2004-01-24,37.17
2004-01-25,37.09
2004-01-26,37.13
2004-01-27,37.13
2004-01-28,37.14
2004-01-29,36.98
2004-01-30,36.98
2004-01-31,37.06
2004-02-01,37.19
2004-02-02,37.58
2004-02-03,37.96
2004-02-04,38.05
2004-02-05,37.89
2004-02-06,37.71
2004-02-07,37.81
2004-02-08,37.53
2004-02-09,37.29
2004-02-10,37.14
2004-02-11,37.0
2004-02-12,36.91
2004-02-13,36.87
2004-02-14,36.85
2004-02-15,37.11
2004-02-16,38.1
2004-02-17,38.13
2004-02-18,38.88
2004-02-19,39.07
2004-02-20,38.9
2004-02-21,39.0
2004-02-22,39.53
2004-02-23,39.99
2004-02-24,40.33
2004-02-25,40.63
2004-02-26,39.04
2004-02-27,39.6
2004-02-28,40.26
2004-02-29,41.13
2004-03-01,41.65
2004-03-02,41.58
2004-03-03,41.7
2004-03-04,41.5
2004-03-05,42.16
2004-03-06,42.08
2004-03-07,42.01
2004-03-08,43.11
2004-03-09,45.94
2004-03-10,48.01
2004-03-11,48.15
2004-03-12,48.62
2004-03-13,49.54
2004-03-14,50.31
2004-03-15,51.13
2004-03-16,51.62